Weather History for New Philadelphia, OH

Change the Weather History Date:

Sunday, February 10, 2013

  Actual Average Record
Temperature  
Mean Temperature 34 °F 31 °F  
Max Temperature 50 °F 40 °F 64 °F (2001)
Min Temperature 18 °F 22 °F -10 °F (1975)
Degree Days  
Heating Degree Days 31 34  
Month to date heating degree days 392 348  
Since 1 July heating degree days 3537 3620  
Cooling Degree Days 0 0  
Month to date cooling degree days 0 0  
Year to date cooling degree days 0 0  
Moisture  
Dew Point 21 °F    
Average Humidity 61    
Maximum Humidity 84    
Minimum Humidity 37    
Precipitation  
Precipitation T in 0.09 in 0.42 in (1965)
Month to date precipitation 0.33 0.81  
Year to date precipitation 1.83 3.41  
Sea Level Pressure  
Sea Level Pressure 30.16 in    
Wind  
Wind Speed 6 mph (SE)    
Max Wind Speed 23 mph    
Max Gust Speed 33 mph    
Visibility 10 miles    
Events Rain    
T = Trace of Precipitation, MM = Missing Value Source: NWS Daily Summary

Daily Weather History Graph

Daily Weather History Graph

Search for Another Location

Airport:

Trip Planner

Search our weather history database for the weather conditions in past years. The results will help you decide how hot, cold, wet, or windy it might be!

Date:

Astronomy

Feb. 10, 2013 Rise Set
Actual Time 7:25 AM EST 5:55 PM EST
Civil Twilight 6:56 AM EST 6:23 PM EST
Nautical Twilight 6:24 AM EST 6:55 PM EST
Astronomical Twilight 5:53 AM EST 7:27 PM EST
Moon 7:13 AM EST (2/10) 6:44 PM EST (2/10)
Length of Visible Light 11h 26m
Length of Day
10h 30m
New Moon, 0% of the Moon is Illuminated
Feb 10
New Moon
Feb 17
First Quarter
Feb 25
Full
Mar 4
Last Quarter
Mar 11
New

Hourly Weather History & Observations

Time (EST) Temp. Windchill Dew Point Humidity Pressure Visibility Wind Dir Wind Speed Gust Speed Precip Events Conditions
12:53 AM 19.0 °F - 14.0 °F 81% 30.35 in 10.0 mi Calm Calm - N/A   Clear
1:53 AM 19.0 °F - 12.9 °F 77% 30.35 in 10.0 mi Calm Calm - N/A   Clear
2:53 AM 19.9 °F 14.9 °F 15.1 °F 81% 30.33 in 10.0 mi SE 3.5 mph - N/A   Clear
3:53 AM 19.0 °F 13.9 °F 14.0 °F 81% 30.31 in 10.0 mi Variable 3.5 mph - N/A   Clear
4:53 AM 21.9 °F 15.7 °F 16.0 °F 78% 30.29 in 10.0 mi SE 4.6 mph - N/A   Clear
5:53 AM 21.9 °F - 16.0 °F 78% 30.30 in 10.0 mi Calm Calm - N/A   Clear
6:53 AM 23.0 °F 18.4 °F 17.1 °F 78% 30.29 in 10.0 mi ESE 3.5 mph - N/A   Clear
7:53 AM 26.1 °F 20.5 °F 18.0 °F 71% 30.30 in 10.0 mi ESE 4.6 mph - N/A   Clear
8:53 AM 27.0 °F 20.5 °F 18.0 °F 69% 30.27 in 10.0 mi SE 5.8 mph - N/A   Clear
9:53 AM 32.0 °F 25.6 °F 19.0 °F 59% 30.27 in 10.0 mi ESE 6.9 mph - N/A   Clear
10:53 AM 36.0 °F 31.1 °F 19.0 °F 50% 30.23 in 10.0 mi SSE 5.8 mph - N/A   Partly Cloudy
11:53 AM 39.0 °F 32.3 °F 21.0 °F 49% 30.23 in 10.0 mi SE 10.4 mph - N/A   Clear
12:53 PM 42.1 °F 37.7 °F 21.9 °F 45% 30.16 in 10.0 mi ESE 6.9 mph - N/A   Mostly Cloudy
1:53 PM 46.0 °F 43.9 °F 21.0 °F 37% 30.13 in 10.0 mi Variable 4.6 mph - N/A   Overcast
2:53 PM 48.9 °F - 24.1 °F 38% 30.08 in 10.0 mi SE 9.2 mph - N/A   Scattered Clouds
3:53 PM 48.0 °F - 25.0 °F 41% 30.06 in 10.0 mi ESE 8.1 mph - N/A   Mostly Cloudy
4:53 PM 46.9 °F - 23.0 °F 39% 30.05 in 10.0 mi SE 6.9 mph - N/A   Overcast
5:53 PM 46.9 °F - 23.0 °F 39% 30.06 in 10.0 mi WSW 5.8 mph - N/A   Overcast
6:53 PM 44.1 °F 39.0 °F 26.1 °F 49% 30.01 in 10.0 mi SE 9.2 mph - N/A   Overcast
7:53 PM 45.0 °F 40.1 °F 24.1 °F 44% 29.99 in 10.0 mi SE 9.2 mph - N/A   Scattered Clouds
8:53 PM 46.9 °F - 25.0 °F 42% 29.94 in 10.0 mi SSE 10.4 mph - N/A   Overcast
9:53 PM 46.9 °F - 25.0 °F 42% 29.93 in 10.0 mi SE 8.1 mph - N/A   Overcast
10:53 PM 48.0 °F - 30.9 °F 52% 29.92 in 10.0 mi South 9.2 mph 20.7 mph 0.00 in Rain Light Rain
11:53 PM 46.0 °F 41.4 °F 34.0 °F 63% 29.90 in 10.0 mi South 9.2 mph 17.3 mph 0.00 in Rain Light Rain